[[{"header":{"parameterUnit":"m.s-1","parameterCategory":1,"la1":30.2991,"la2":30.254,"lo1":-89.0895,"lo2":-89.0444,"dy":0.0017,"dx":0.0017,"nx":28,"ny":28,"refTime":"2024-07-10T09:00:00:Z","depth":0,"parameterNumber":2,"parameterNumberName":"U-component_of_WINDS"},"data":[0,0,0,0,0,0,0,0,0,0,0,0,0,0,0,0,0,0,0,0,0,0,0,0,0,0,0,0,0,0,0,0,0,0,0,0,0,0,0,0,0,0,0,0,0,0,0,0,0,0,0,0,0,0,0,0,0,0,2.8622,2.8623,0,2.8668,2.8668,2.8669,2.8605,2.8603,2.8601,2.8598,2.8646,2.8649,2.8652,0,0,0,0,0,0,0,0,0,0,0,0,0,2.8479,2.8482,2.8622,2.8623,2.8623,2.8668,2.8668,2.8669,2.8605,2.8603,2.86,2.8597,2.8645,2.8649,2.8653,0,0,0,0,0,0,0,0,0,0,0,0,0,2.8535,2.8483,2.8622,2.8597,2.8595,2.8667,2.8668,2.8669,2.8606,2.8603,2.8599,2.8596,2.8643,2.8648,2.8653,2.8752,0,0,2.8669,2.8671,0,0,0,0,0,0,0,0,2.8532,2.854,2.86,2.8599,2.8597,2.8627,2.8635,2.8697,2.8607,2.8602,2.8598,2.8594,2.8642,2.8647,2.8663,2.8755,2.8757,2.8669,2.8672,2.8674,2.8676,0,0,0,0,0,0,0,2.8528,2.8538,2.864,2.8601,2.8599,2.8583,2.8587,2.8647,2.8641,2.8602,2.8598,2.8604,2.8641,2.8659,2.8664,2.8757,2.8669,2.8674,2.8677,2.8679,2.8928,2.8932,0,0,0,0,0,0,2.8527,2.8535,2.8639,2.8641,2.8555,2.8588,2.8593,2.8621,2.864,2.8639,2.8607,2.8601,2.8652,2.8658,2.8665,2.878,2.8674,2.8679,2.8682,2.8925,2.8929,2.8933,0,0,0,0,0,0,2.8524,2.8537,2.8637,2.8587,2.8599,2.8595,2.8626,2.8624,2.8641,2.8643,2.8642,2.8626,2.8649,2.8658,2.873,2.878,2.8681,2.8686,2.8921,2.8926,2.8931,2.9011,0,0,0,0,0,0,2.8521,2.8537,2.8575,2.8588,2.8601,2.8702,2.863,2.8627,2.865,2.8643,2.8661,2.8661,2.8647,2.8723,2.8735,2.8786,2.869,2.8916,2.8923,2.8929,2.9004,2.9018,2.9031,0,0,0,0,0,2.8516,2.8596,2.8577,2.859,2.8649,2.8705,2.8712,2.8695,2.8654,2.8692,2.8693,2.866,2.8774,2.8731,2.8744,2.8797,2.8913,2.8921,2.8929,2.8998,2.9015,2.9031,0,0,0,0,0,0,2.8589,2.8598,2.8576,2.8664,2.8684,2.8694,2.8741,2.8715,2.8747,2.8739,2.8716,2.8721,2.8797,2.8805,2.8757,2.8892,2.8836,2.8848,2.8884,2.8901,2.8914,2.891,2.8694,0,0,0,0,0,2.8616,2.866,2.8665,2.8742,2.8753,2.8745,2.8769,2.8754,2.8774,2.8782,2.8788,2.8809,2.8849,2.8876,2.8913,2.9005,2.9007,2.9048,2.9061,2.9072,2.9081,2.9127,2.9145,2.896,2.896,2.896,0,0,2.8671,2.8681,2.871,2.8757,2.877,2.8816,2.8753,2.8805,2.8838,2.879,2.8857,2.8863,2.8884,2.8966,2.9002,2.8974,2.9133,2.9083,2.9092,2.9095,2.9137,2.9155,2.917,2.8965,2.8964,2.8963,0,0,2.8793,2.8807,2.887,2.8884,2.8906,2.89,2.8915,2.8929,2.893,2.8997,2.8961,2.9001,2.9071,2.9086,2.9104,2.923,2.92,2.9243,2.9313,2.9358,2.9372,2.9385,2.9427,2.9443,2.9253,2.9253,2.9253,0,2.8858,2.8926,2.8906,2.8959,2.8979,2.8937,2.9,2.9016,2.9049,2.9063,2.9032,2.9117,2.9129,2.9211,2.9242,2.9259,2.9273,2.924,2.9372,2.9385,2.9396,2.9436,2.9452,2.9258,2.9257,2.9257,2.9256,0,2.9004,2.9051,2.91,2.913,2.9156,2.9215,2.9203,2.9232,2.9214,2.9211,2.9278,2.9291,2.9328,2.9347,2.9332,2.9428,2.9409,2.9376,2.9319,2.9419,2.9455,2.9471,2.9265,2.9263,2.9261,2.926,0,0,2.9174,2.9191,2.9209,2.9221,2.924,2.9276,2.9332,2.9367,2.9391,2.9415,2.9459,2.9519,2.9487,2.9506,2.9492,2.9532,2.9627,2.9493,2.9493,2.9514,2.9729,2.9752,2.977,2.9608,2.9611,2.9613,2.9726,0,2.9293,2.9388,2.9371,2.9463,2.9504,2.9464,2.9512,2.9529,2.9528,2.9563,2.9561,2.9602,2.9559,2.957,2.9608,2.9607,2.9669,2.9599,2.9647,2.9649,2.964,2.979,2.9815,2.9922,2.9741,2.9744,2.9745,0,2.9445,2.9473,2.9569,2.9578,2.9595,2.9639,2.9668,2.9703,2.972,2.9716,2.9737,2.9714,2.9768,2.9712,2.9785,2.9737,2.9756,2.9759,2.9763,2.9764,2.9701,2.9793,2.9956,2.997,2.9768,2.9767,2.9765,0,2.9555,2.9617,2.9681,2.9693,2.9707,2.9738,2.9745,2.9759,2.9781,2.9807,2.982,2.9853,2.9871,2.9896,2.9882,2.9843,2.9956,2.99,2.9952,2.9953,2.9976,2.9974,3.0141,2.9993,2.9993,2.9993,2.9993,0,2.9689,2.9748,2.973,2.9769,2.9834,2.9813,2.9878,2.988,2.9893,2.9931,2.99,2.9936,2.9917,2.9952,2.9942,3.0001,3.0011,3.0007,3.0003,3.0008,3.0008,3.0018,3.001,2.9997,2.9996,2.9995,2.9995,0,2.9822,2.9812,2.9879,2.9886,2.9889,2.9936,2.9942,2.9978,2.9974,3.0023,3.0033,3.0027,3.0066,3.0055,3.0098,3.0091,3.0165,3.0154,3.0159,3.0155,3.0207,3.0201,3.0383,3.0405,3.0246,3.0248,3.0249,0,2.9906,2.9951,2.9962,2.9985,2.9994,3.0032,3.0053,3.0034,3.0058,3.0079,3.0112,3.0149,3.0176,3.024,3.0239,3.0271,3.0258,3.032,3.0263,3.0265,3.0255,3.0251,3.0254,3.033,3.0332,3.0334,3.0335,0,3.0056,3.0048,3.008,3.0109,3.0135,3.0158,3.0177,3.0198,3.018,3.0208,3.0247,3.0268,3.0311,3.0346,3.0375,3.0382,3.0355,3.0353,3.0366,3.0371,3.037,3.0368,3.0186,3.0348,3.0347,3.0346,3.0345,3.0345,3.0165,3.0201,3.0214,3.0249,3.0262,3.028,3.0313,3.0312,3.0344,3.0377,3.0364,3.0408,3.0422,3.0458,3.0468,3.0502,3.0478,3.0498,3.0503,3.0507,3.0512,3.0367,3.0508,3.0507,3.0507,3.0506,3.0506,0,3.031,3.0316,3.0349,3.0376,3.0403,3.0376,3.0395,3.042,3.0458,3.0474,3.0501,3.0544,3.0578,3.0579,3.061,3.0636,3.0625,3.0645,3.0641,3.0643,3.0533,3.0517,3.0654,3.0654,3.0654,3.0654,3.0654,3.0653,3.0389,3.0447,3.0441,3.0505,3.051,3.0552,3.0565,3.0581,3.0593,3.0642,3.0669,3.067,3.0679,3.071,3.0739,3.0738,3.0749,3.0774,3.0768,3.0666,3.0651,3.0637,3.0621,3.0777,3.0778,3.0874,3.0875,3.0876]},{"header":{"parameterUnit":"m.s-1","parameterCategory":1,"la1":30.2991,"la2":30.254,"lo1":-89.0895,"lo2":-89.0444,"dy":0.0017,"dx":0.0017,"nx":28,"ny":28,"refTime":"2024-07-10T09:00:00:Z","depth":0,"parameterNumber":3,"parameterNumberName":"V-component_of_WINDS"},"data":[0,0,0,0,0,0,0,0,0,0,0,0,0,0,0,0,0,0,0,0,0,0,0,0,0,0,0,0,0,0,0,0,0,0,0,0,0,0,0,0,0,0,0,0,0,0,0,0,0,0,0,0,0,0,0,0,0,0,1.9103,1.9103,0,1.9079,1.9079,1.9079,1.9029,1.9028,1.9027,1.9026,1.9001,1.9001,1.9001,0,0,0,0,0,0,0,0,0,0,0,0,0,1.9105,1.9105,1.9104,1.9103,1.9103,1.9079,1.9079,1.9078,1.9029,1.9028,1.9027,1.9026,1.9001,1.9001,1.9001,0,0,0,0,0,0,0,0,0,0,0,0,0,1.9095,1.9106,1.9104,1.9076,1.9073,1.9079,1.9079,1.9078,1.903,1.9028,1.9027,1.9025,1.9001,1.9001,1.9001,1.9033,0,0,1.9002,1.9003,0,0,0,0,0,0,0,0,1.9096,1.9095,1.908,1.9078,1.9074,1.9056,1.907,1.9063,1.903,1.9046,1.9026,1.9025,1.902,1.9019,1.9017,1.9032,1.9031,1.9002,1.9003,1.9003,1.9003,0,0,0,0,0,0,0,1.9096,1.9096,1.9094,1.908,1.9076,1.9063,1.906,1.9068,1.9042,1.9045,1.9041,1.9039,1.9018,1.9017,1.9017,1.903,1.9002,1.9003,1.9003,1.9003,1.9066,1.9067,0,0,0,0,0,0,1.9101,1.9097,1.9095,1.9093,1.9082,1.9065,1.9061,1.9063,1.9041,1.9037,1.904,1.9037,1.9017,1.9016,1.9015,1.9049,1.9003,1.9003,1.9003,1.9064,1.9066,1.9068,0,0,0,0,0,0,1.9102,1.9102,1.9096,1.9094,1.9092,1.9066,1.9069,1.9064,1.9062,1.9038,1.9033,1.9044,1.9016,1.9015,1.9028,1.9047,1.9003,1.9004,1.9063,1.9065,1.9067,1.9117,0,0,0,0,0,0,1.9102,1.9102,1.9115,1.9095,1.9092,1.911,1.907,1.9064,1.9063,1.9058,1.904,1.9036,1.9015,1.9028,1.9029,1.9047,1.9004,1.9061,1.9064,1.9066,1.9114,1.9121,1.9127,0,0,0,0,0,1.9102,1.913,1.9116,1.9116,1.9107,1.9111,1.911,1.9085,1.9065,1.9076,1.906,1.9036,1.9045,1.903,1.903,1.9049,1.9059,1.9063,1.9066,1.9111,1.9119,1.9127,0,0,0,0,0,0,1.9154,1.9127,1.9111,1.9133,1.9125,1.9103,1.9117,1.9096,1.9093,1.9088,1.9058,1.9054,1.9071,1.9061,1.9044,1.9077,1.9048,1.9052,1.9082,1.909,1.9097,1.9098,1.9004,0,0,0,0,0,1.9167,1.9173,1.9149,1.9171,1.9168,1.9143,1.9144,1.9126,1.9115,1.9112,1.9097,1.9087,1.9087,1.9089,1.9088,1.9112,1.9106,1.9125,1.9132,1.9137,1.914,1.915,1.9157,1.9078,1.9078,1.9078,0,0,1.9196,1.9183,1.9188,1.9181,1.9173,1.9178,1.9141,1.9148,1.9151,1.9113,1.9124,1.9112,1.91,1.9118,1.9125,1.9111,1.9161,1.9141,1.9146,1.9146,1.9154,1.9161,1.9168,1.9081,1.908,1.908,0,0,1.9251,1.9242,1.9258,1.925,1.9237,1.922,1.9224,1.9205,1.9195,1.9206,1.9176,1.9179,1.9181,1.9173,1.9169,1.9218,1.9195,1.9219,1.9253,1.9263,1.9269,1.9274,1.929,1.9296,1.9222,1.9222,1.9222,0,1.9289,1.9296,1.9269,1.9278,1.9275,1.924,1.9255,1.9248,1.9236,1.9234,1.9218,1.9218,1.9207,1.9221,1.9233,1.9232,1.9234,1.922,1.927,1.9275,1.928,1.9294,1.93,1.9225,1.9225,1.9224,1.9224,0,1.9341,1.9347,1.9361,1.9349,1.9348,1.936,1.9334,1.9336,1.9318,1.9302,1.9312,1.9297,1.9292,1.9294,1.9277,1.9306,1.9296,1.9276,1.9246,1.929,1.9303,1.9309,1.9229,1.9228,1.9227,1.9226,0,0,1.9429,1.94,1.9406,1.9399,1.9381,1.9384,1.9394,1.9388,1.9389,1.9382,1.9388,1.9389,1.9369,1.9365,1.9345,1.9354,1.9391,1.9332,1.9331,1.9342,1.942,1.9435,1.9442,1.9376,1.9377,1.9378,1.942,0,1.9478,1.9493,1.9469,1.9489,1.9492,1.9458,1.9466,1.9455,1.9441,1.944,1.9424,1.9425,1.9399,1.9396,1.9403,1.9385,1.9406,1.9382,1.938,1.938,1.9383,1.9449,1.9465,1.9505,1.9425,1.9426,1.9427,0,1.9538,1.9532,1.9553,1.9532,1.9532,1.954,1.9531,1.9533,1.9519,1.9507,1.9501,1.9478,1.9485,1.9457,1.9464,1.9448,1.9446,1.9437,1.9438,1.9436,1.9406,1.9447,1.9518,1.9523,1.9435,1.9434,1.9434,0,1.9597,1.9595,1.9606,1.9601,1.9577,1.9583,1.9573,1.9558,1.9556,1.9548,1.9546,1.954,1.9536,1.9531,1.9506,1.9488,1.9515,1.9486,1.9504,1.9505,1.9511,1.9511,1.9581,1.9512,1.9512,1.9512,1.9512,0,1.9654,1.9668,1.9632,1.9639,1.9652,1.9623,1.9637,1.9624,1.961,1.9613,1.9583,1.9586,1.9554,1.9553,1.9533,1.9541,1.954,1.953,1.9524,1.9531,1.9533,1.9529,1.9525,1.9514,1.9513,1.9513,1.9513,0,1.9723,1.9699,1.9709,1.9685,1.9679,1.969,1.9668,1.9673,1.9656,1.9659,1.9658,1.9631,1.9628,1.9603,1.9595,1.9582,1.9596,1.9586,1.9601,1.9597,1.9616,1.9614,1.9685,1.9692,1.962,1.9621,1.9622,0,1.976,1.9769,1.9746,1.9745,1.9737,1.9737,1.9733,1.9705,1.9702,1.9686,1.9692,1.9687,1.9681,1.9678,1.9657,1.9649,1.9638,1.9663,1.9636,1.9643,1.9636,1.9635,1.9635,1.9669,1.967,1.967,1.9671,0,1.9828,1.9815,1.9812,1.9804,1.9801,1.9794,1.9784,1.9785,1.9753,1.9752,1.9748,1.9744,1.9735,1.9729,1.9718,1.9706,1.9683,1.968,1.9683,1.969,1.9697,1.9692,1.9614,1.9678,1.9677,1.9677,1.9676,1.9676,1.988,1.9886,1.987,1.9866,1.9856,1.9848,1.985,1.9832,1.9829,1.9819,1.9802,1.9801,1.9784,1.9767,1.9757,1.9755,1.9741,1.9747,1.9748,1.9749,1.9752,1.9699,1.9753,1.9753,1.9752,1.9752,1.9752,0,1.9945,1.9933,1.993,1.9917,1.9914,1.9892,1.988,1.9878,1.9877,1.9865,1.9859,1.9853,1.9847,1.9825,1.9816,1.9818,1.9807,1.9817,1.9816,1.9813,1.9766,1.9763,1.9826,1.9826,1.9826,1.9826,1.9826,1.9826,1.9978,1.9986,1.9971,1.9973,1.996,1.9958,1.9953,1.9944,1.9933,1.9929,1.9923,1.9909,1.9892,1.9881,1.9873,1.9867,1.9864,1.9877,1.9867,1.9824,1.9817,1.981,1.9807,1.9877,1.9877,1.9914,1.9914,1.9914]}]]